Regional Weather Roundup
Issued by NWS Kansas City/Pleasant Hill, MO

Home | Current Version | Previous Version | Graphics & Text | Print | Product List | Glossary Off
Versions: 1 2 3 4 5 6 7 8 9 10 11 12 13 14 15 16 17 18 19 20 21 22 23 24 25 26 27 28 29 30 31 32 33 34 35 36 37 38 39 40 41 42 43 44 45 46 47 48 49 50

000
ASUS43 KEAX 260910
RWREAX

WEATHER ROUNDUP FOR EASTERN KANSAS AND NORTHWEST MISSOURI
NATIONAL WEATHER SERVICE KANSAS CITY/PLEASANT HILL MO
400 AM CDT MON SEP 26 2016

KSZ040-057-103>105-MOZ028-029-037-043-261000-
...KANSAS CITY METROPOLITAN AREA...

CITY           SKY/WX    TMP DP  RH WIND       PRES   REMARKS
K.C. INTL      CLEAR     52  47  83 W6        30.23S
K.C. DOWNTOWN  CLEAR     57  51  80 NW6       30.23R
LEES SUMMIT    PTCLDY    57  53  86 NW6       30.23R
OLATHE - IXD   CLEAR     53  49  86 NW7       30.24S
OLATHE - OJC   CLEAR     55  50  83 N6        30.23S
LAWRENCE       CLEAR     50  48  93 W7        30.25R

$$

MOZ001>008-011>017-020>025-030>033-038>040-044>046-053-054-261000-
...NORTHERN AND CENTRAL MISSOURI...

CITY           SKY/WX    TMP DP  RH WIND       PRES   REMARKS
ST. JOSEPH     CLEAR     48  45  89 W6        30.23S
MOSBY          SUNNY     52  50  93 CALM      30.22S
WHITEMAN AFB   PTCLDY    59  58  97 NW7       30.19R
CLINTON        CLOUDY    59  59 100 CALM      30.21R
SEDALIA        CLOUDY    60  56  86 W6        30.20R
WARSAW         NOT AVBL
CHILLICOTHE      N/A     53  47  79 CALM      30.21R
KIRKSVILLE     PTCLDY    54  47  77 NW7       30.17S

$$

MOZ041-047>049-056>058-063>065-088>090-097-261000-
...EASTERN AND SOUTHERN MISSOURI...

CITY           SKY/WX    TMP DP  RH WIND       PRES   REMARKS
ST. LOUIS INTL LGT RAIN  61  56  83 W7        30.12S
SPIRIT OF STL  CLOUDY    60  58  92 SW7       30.12S
COLUMBIA       MOCLDY    60  59  96 W7        30.16S
JEFFERSON CITY MOCLDY    61  59  93 CALM      30.16S
ROLLA          MOCLDY    58  56  93 CALM      30.14F
OSAGE BEACH    CLOUDY    59  58  96 CALM      30.18
SPRINGFIELD    MOCLDY    59  56  89 N6        30.19S
BRANSON        LGT RAIN  57  57 100 CALM      30.21R
JOPLIN         MOCLDY    60  59  96 CALM        N/A
WEST PLAINS    MOCLDY    60  55  83 N12       30.17F

$$

IAZ060-094-KSZ022-034>040-054-083-096-NEZ052-066-093-261000-
...KANSAS...SOUTHEAST NEBRASKA AND IOWA...

CITY           SKY/WX    TMP DP  RH WIND       PRES   REMARKS
TOPEKA         CLEAR     52  45  77 SW3       30.25S
MANHATTAN      CLEAR     46  43  89 CALM      30.27F
EMPORIA        CLEAR     51  45  79 NW6       30.27R
CHANUTE        CLOUDY    56  53  90 N6        30.24R
WICHITA        PTCLDY    51  47  86 NW7       30.28S
OMAHA          PTCLDY    50  40  68 CALM      30.21F
LINCOLN        CLEAR     48  38  68 CALM      30.26F
FALLS CITY     PTCLDY    48  43  82 W8        30.23F
LAMONI         CLEAR     50  44  80 W9        30.18S
DES MOINES     CLEAR     52  42  69 W7        30.14S

$$




USA.gov is the U.S. government's official web portal to all federal, state and local government web resources and services.